Location: Casilda
(33.0440°S, 61.1680°W)
Time: 17:19:22
(UTC-03:00)

ISS - Pass Details

Date: 24 March 2023
Orbit: 413 x 421 km, 51.6° (Epoch: 30 March)

Event Time Altitude Azimuth Distance (km) Brightness Sun altitude
Exits shadow 04:34:22 10° 120° (ESE) 1,515 -0.1 -32.8°
Drops below altitude 10° 04:34:23 10° 120° (ESE) 1,521 -0.1 -32.8°
Sets 04:36:34 0° 127° (SE) 2,395 1.1 -32.4°
